This is the latest recevied weather packets stored in our database for station/object DF9PM-13. If no packets are shown the sender has not sent any weather packets the latest 10 day(s).
| Time | Temp. | Humidity | Pressure | Rain* | Wind** | Luminosity | Snow |
|---|---|---|---|---|---|---|---|
| 1777358907 | 15.56° C | 38% | 1019.1 hPa | - | - | - | - |
| 1777358007 | 14.44° C | 39% | 1019 hPa | - | - | - | - |
| 1777357707 | 13.89° C | 40% | 1019 hPa | - | - | - | - |
| 1777357407 | 13.89° C | 41% | 1018.9 hPa | - | - | - | - |
| 1777357106 | 13.33° C | 41% | 1019 hPa | - | - | - | - |
| 1777356806 | 13.33° C | 42% | 1018.9 hPa | - | - | - | - |
| 1777356506 | 13.33° C | 43% | 1018.9 hPa | - | - | - | - |
| 1777356206 | 13.33° C | 42% | 1018.8 hPa | - | - | - | - |
| 1777355906 | 12.78° C | 43% | 1018.8 hPa | - | - | - | - |
| 1777354706 | 12.78° C | 44% | 1018.8 hPa | - | - | - | - |
| 1777354406 | 12.22° C | 45% | 1018.7 hPa | - | - | - | - |
| 1777354106 | 12.22° C | 44% | 1018.8 hPa | - | - | - | - |
| 1777353806 | 12.22° C | 46% | 1018.7 hPa | - | - | - | - |
| 1777353506 | 12.22° C | 45% | 1018.7 hPa | - | - | - | - |
| 1777353206 | 12.22° C | 46% | 1018.7 hPa | - | - | - | - |
| 1777352906 | 12.22° C | 45% | 1018.6 hPa | - | - | - | - |
| 1777352606 | 12.22° C | 45% | 1018.6 hPa | - | - | - | - |
| 1777352306 | 12.22° C | 45% | 1018.5 hPa | - | - | - | - |
| 1777352005 | 12.22° C | 45% | 1018.6 hPa | - | - | - | - |
| 1777351705 | 11.67° C | 45% | 1018.6 hPa | - | - | - | - |
| 1777351105 | 11.67° C | 46% | 1018.4 hPa | - | - | - | - |
| 1777350805 | 11.67° C | 45% | 1018.3 hPa | - | - | - | - |
| 1777350505 | 12.22° C | 44% | 1018.3 hPa | - | - | - | - |
| 1777350205 | 12.22° C | 45% | 1018.3 hPa | - | - | - | - |
| 1777349905 | 12.22° C | 44% | 1018.3 hPa | - | - | - | - |
* Rain since midnight (hover to see other rain measurements)
** Current wind speed in m/s (hover to see current wind gust speed)